Location: Bodest
(46.3000°N, 22.5667°E)
Time: 00:23:56
(UTC+00:00)

Cosmos 1934 Rocket - Pass Details

Date: 16 October 2021
Orbit: 938 x 999 km, 83.0° (Epoch: 26 November)

Event Time Altitude Azimuth Distance (km) Brightness Sun altitude
Rises 17:49:26 0° 194° (SSW) 3,635 7.0 -22.8°
Reaches altitude 10° 17:51:57 10° 196° (SSW) 2,684 6.3 -23.2°
Maximum altitude 17:58:04 70° 280° (W) 1,009 4.2 -24.3°
Drops below altitude 10° 18:04:09 10° 4° (N) 2,670 6.4 -25.3°
Sets 18:06:39 0° 7° (N) 3,615 7.1 -25.7°
